Regional Weather Roundup
Issued by NWS

Home | Current Version | Previous Version | Text Only | Print | Product List | Glossary Off
Versions: 1 2 3 4 5 6 7 8 9 10 11 12 13 14 15 16 17 18 19 20 21 22 23 24 25 26 27 28 29 30 31 32 33 34 35 36 37 38 39 40 41 42 43 44 45 46 47 48 49 50

000
ASUS45 KBOU 010307
RWRCO

WEATHER ROUNDUP FOR COLORADO
NATIONAL WEATHER SERVICE DENVER/BOULDER CO
900 PM MDT THU JUL 31 2014

NOTE: "FAIR" INDICATES FEW OR NO CLOUDS BELOW 12000 FEET WITH NO
SIGNIFICANT WEATHER AND/OR OBSTRUCTIONS TO VISIBILITY.

COZ001>005-013-030-031-010400-
...NORTHWEST COLORADO...

CITY           SKY/WX    TMP DP  RH WIND       PRES   REMARKS
CRAIG          MOCLDY    59  53  80 CALM      30.20S
HAYDEN         MOCLDY    66  50  55 SE7       30.23S
MEEKER         PTCLDY    69  48  47 E5        30.22R
MOUNT WERNER   NOT AVBL
STEAMBOAT SPGS MOCLDY    62  52  70 SE3       30.27R
WALDEN         PTCLDY    55  41  58 E5        30.37S
$$

COZ006>008-011-010400-
...WEST CENTRAL VALLEYS...

CITY           SKY/WX    TMP DP  RH WIND       PRES   REMARKS
GRAND JUNCTION MOCLDY    76  52  43 NW6       30.07R
MONTROSE       MOCLDY    74  56  53 S5        30.17R
EAGLE          CLOUDY    66  55  68 SE3       30.27R
RIFLE          MOCLDY    73  49  42 E10       30.14R
DELTA          MOCLDY    79  49  34 E6        30.11R
NUCLA          MOCLDY    75  46  35 NW3       30.20R
$$

COZ017>023-064>068-010400-
...SOUTHWEST COLORADO...

CITY           SKY/WX    TMP DP  RH WIND       PRES   REMARKS
DURANGO        MOCLDY    68  53  58 VRB3      30.24R
CORTEZ         CLEAR     69  51  52 CALM      30.16R
PAGOSA SPRINGS MOCLDY    59  52  77 NE5       30.34R
TELLURIDE      MOCLDY    63  50  63 SE3       30.40S
WOLF CREEK PAS NOT AVBL
$$

COZ009-010-012-014-032>034-037-058>063-010400-
...CENTRAL COLORADO...

CITY           SKY/WX    TMP DP  RH WIND       PRES   REMARKS
ASPEN          CLOUDY    60  51  72 S7        30.33R
BUENA VISTA    CLOUDY    53  50  90 SW3       30.43R
COPPER MTN     MOCLDY    50  41  71 W6        30.64R
BERTHOUD PASS  FOG       37  36  93 E20       30.68S VSB<1/4
COTTONWOOD PAS FOG       52  48  87 W6        30.53R VSB 3/4
GUNNISON       CLOUDY    64  45  48 E18G25    30.33R
KREMMLING      CLOUDY    64  43  45 E10       30.33R
LEADVILLE      CLOUDY    48  47  96 S7          N/A
MONARCH PASS   CLOUDY    41  39  93 E15       30.72S
SALIDA         CLOUDY    56  54  92 CALM      30.47R
SUNLIGHT       CLOUDY    52  46  82 CALM      30.56R
WILKERSON PASS FOG       45  43  93 E8        30.63R VSB<1/4
$$

COZ069>075-010400-
...SAN LUIS VALLEY/SANGRE DE CRISTO MOUNTAINS...

CITY           SKY/WX    TMP DP  RH WIND       PRES   REMARKS
ALAMOSA        CLOUDY    58  52  80 S7        30.35R
LA VETA PASS   RAIN      46  45  93 E12       30.52F VSB 1/4
SAGUACHE       CLOUDY    59  52  77 W5        30.39R
$$

COZ035-036-038>040-010400-
...NORTHERN COLORADO FRONT RANGE...

CITY           SKY/WX    TMP DP  RH WIND       PRES   REMARKS
DENVER INTL AP PTCLDY    67  50  54 S7        30.26R
DMNS CITY PARK   N/A     64  54  68 SE1       30.26R
AURORA         MOCLDY    68  48  49 SE2       30.28S
FRONT RANGE AP NOT AVBL
ERIE MUNI ARPT PTCLDY    64  55  70 CALM      30.24F
BOULDER MUN AP PTCLDY    66  52  59 CALM      30.25S
CENTENNIAL     PTCLDY    68  48  48 SE3       30.29R
BROOMFIELD     PTCLDY    66  48  52 VRB3      30.28S
FORT COLLINS   CLEAR     66  50  55 S6        30.23R
LONGMONT       CLEAR     65  54  67 W6        30.25F
$$

COZ041-046-047-076>085-087-088-010400-
...PIKES PEAK/PALMER DIVIDE AND SOUTHERN FOOTHILLS...

CITY           SKY/WX    TMP DP  RH WIND       PRES   REMARKS
COLO. SPRINGS  MOCLDY    63  56  78 S3        30.34R
A. F. ACADEMY  MOCLDY    60  58  91 SE3       30.35R
ELLICOTT       MOCLDY    61  57  87 W5        30.32S
FALCON         MOCLDY    58  55  92 S3        30.38R
FORT CARSON    MOCLDY    63  55  76 SW5       30.31S
LIMON          PTCLDY    62  52  69 SW6       30.27R
MONUMENT HILL  PTCLDY    55  52  88 S7        30.36S
TRINIDAD       CLOUDY    64  56  75 W7        30.30R
$$

COZ042>045-048>051-090-091-010400-
...NORTHEAST COLORADO...

CITY           SKY/WX    TMP DP  RH WIND       PRES   REMARKS
GREELEY ARPT   NOT AVBL
AKRON          CLEAR     68  53  58 W5        30.21R
BURLINGTON     PTCLDY    66  52  60 SW8       30.20R
WRAY             N/A     71  57  60 SW6       30.15R
STERLING       PTCLDY    70  63  78 W5        30.16R
HOLYOKE        CLEAR     72  59  64 CALM      30.15R
FORT MORGAN    CLEAR     70  50  48 CALM      30.22R
$$

COZ086-089-092>099-010400-
...SOUTHEAST COLORADO...

CITY           SKY/WX    TMP DP  RH WIND       PRES   REMARKS
PUEBLO         MOCLDY    66  58  75 S5        30.24S
LA JUNTA       PTCLDY    70  56  61 E3        30.22R
LAMAR          PTCLDY    66  58  75 S3        30.18R
SPRINGFIELD      N/A     66  57  72 E3        30.23R
$$



USA.gov is the U.S. government's official web portal to all federal, state and local government web resources and services.